Vorticity
7 6 8 6 8 7 7 8 10 7 5 6 7 10 11 8 9 9 9 7 7 6 6 6 6 3 3 -0 -1 0 8 3 -1 5 8 12 17 12 10 13 12 12 12 11 6 11 18
7 7 9 8 9 9 9 6 4 12 11 10 9 12 11 12 9 9 9 10 8 8 6 6 7 3 3 0 -2 -0 7 4 -1 13 13 14 15 15 10 10 14 6 6 12 20 24 24
12 14 7 7 9 12 11 10 11 5 8 12 12 14 17 10 8 8 8 12 8 9 8 6 6 5 5 10 0 5 3 11 5 -9 16 12 11 11 14 16 12 16 21 24 24 26 17
13 12 10 8 9 11 12 11 10 10 10 10 12 13 13 9 4 11 11 12 11 8 10 0 6 4 2 6 7 8 8 6 12 17 10 12 16 16 18 16 28 41 47 49 46 30 22
11 5 7 11 9 8 11 11 12 12 9 6 3 8 9 10 5 3 11 11 10 13 10 4 5 5 5 6 9 1 2 16 19 12 12 21 23 22 17 44 25 12 3 -1 29 30 22
7 15 11 9 12 15 12 10 12 17 14 15 12 8 7 17 4 2 7 12 11 9 8 6 3 6 8 9 0 6 23 6 10 22 28 31 28 28 53 9 4 4 -0 4 9 17 20
14 6 9 12 12 11 12 18 22 26 27 30 28 35 30 32 37 10 5 1 11 11 0 5 8 8 8 2 14 11 14 15 22 32 36 27 22 51 3 -7 11 8 12 11 12 20 27
9 14 14 12 13 18 24 22 19 21 27 27 26 26 23 14 23 19 16 8 10 8 9 6 8 14 -1 7 14 27 19 35 47 38 35 29 20 1 -9 -4 10 4 17 10 2 56 45
13 15 11 17 25 23 25 35 32 24 14 8 20 26 16 29 8 22 24 15 16 12 6 3 7 7 2 18 22 31 32 19 15 15 9 9 12 -0 4 3 6 9 -13 19 19 7 20
9 12 19 24 28 34 26 11 8 18 20 23 22 17 39 22 26 19 7 26 21 10 8 9 9 16 18 14 17 24 -1 3 11 12 8 1 41 18 8 9 24 21 37 7 14 26 10
11 18 29 32 32 9 16 25 20 16 19 26 15 20 30 13 24 37 31 19 -6 10 10 19 12 13 19 23 16 4 8 1 11 18 10 -6 4 20 15 12 13 37 -6 6 46 13 20
17 32 27 30 13 22 25 12 12 22 10 14 33 10 35 8 8 17 25 28 23 16 16 8 7 24 9 3 12 -6 2 11 13 11 -18 1 11 15 33 20 12 3 -26 -13 42 -2 14
35 18 35 15 30 21 23 34 25 -8 -3 9 17 21 31 23 22 5 26 -5 10 1 10 9 29 14 11 3 6 9 -5 21 10 6 -3 17 6 26 -10 16 17 17 18 25 12 14 2
22 33 13 39 28 24 1 15 32 16 41 33 37 36 36 10 17 5 21 17 6 18 3 9 13 10 18 7 7 4 16 13 6 8 4 12 10 10 10 -1 3 3 15 25 -14 7 8
25 18 52 39 18 7 36 -6 18 45 45 70 57 36 -2 7 56 13 9 -2 14 8 24 25 6 0 11 10 10 8 15 4 6 4 23 22 8 4 7 14 8 0 29 17 9 6 14
29 71 27 3 7 10 6 50 21 18 45 25 7 -1 34 55 12 4 4 7 18 37 10 7 5 8 8 15 13 13 27 9 2 4 18 9 -2 3 2 12 13 15 15 4 -3 10 17
74 28 6 1 16 21 16 15 -14 37 49 51 58 40 8 4 7 5 -0 -4 46 15 6 8 5 9 13 15 15 25 15 16 15 4 26 -0 13 6 15 22 19 15 12 -1 15 12 3
50 -20 1 -2 19 -5 23 -2 22 9 5 -20 0 6 -1 4 3 5 3 38 9 0 9 10 13 21 16 15 33 9 -4 8 16 9 15 26 2 7 -2 9 16 19 17 7 9 0 7
18 23 -0 3 9 14 13 16 8 19 11 22 10 0 1 9 0 11 30 9 3 5 9 12 20 6 6 0 11 16 4 16 7 2 1 2 1 8 6 3 1 -0 3 12 13 11 10
18 13 6 -0 13 23 24 5 10 -6 -15 4 -10 -7 5 14 19 23 16 4 4 6 12 18 10 9 8 5 12 12 25 27 -6 0 4 5 3 4 5 5 6 6 4 5 2 5 5
11 9 7 10 2 -5 25 12 12 16 22 22 32 25 19 21 23 12 7 2 4 11 19 11 -1 -0 5 8 16 6 4 9 17 17 14 14 11 10 8 8 3 3 4 2 2 1 1
4 7 11 -7 7 7 -3 13 2 14 13 25 9 42 26 22 1 18 -1 3 3 14 9 13 9 7 11 15 -3 -3 0 2 3 4 2 9 10 13 13 10 15 14 9 7 7 8 8
1 4 8 12 -4 4 21 5 6 14 20 25 26 24 16 12 15 14 9 4 6 14 15 7 8 9 -0 3 -2 -3 -5 7 10 16 14 3 12 5 17 9 8 9 10 14 16 16 14
1 -7 -2 11 10 3 8 8 8 17 14 24 29 23 14 16 22 9 5 3 3 4 2 7 11 10 3 -0 -3 -2 1 -4 0 10 12 8 2 4 6 2 6 9 5 6 5 6 7
5 -2 8 6 0 7 9 19 15 13 17 9 14 18 15 30 15 -0 5 5 5 2 0 -0 1 1 -2 2 -1 -1 -1 1 1 -0 3 10 11 10 9 7 6 9 8 8 6 6 4
-2 2 4 2 10 10 8 12 11 13 12 10 20 18 21 24 24 1 6 -3 3 2 3 1 0 -1 -1 1 -7 -1 11 12 18 7 14 10 8 8 7 6 11 14 12 13 9 13 12
-0 4 4 5 9 8 11 11 11 18 19 16 24 18 20 18 23 21 16 11 10 7 5 6 4 8 4 7 24 25 16 11 13 14 12 14 12 11 11 8 6 3 3 7 3 4 6
6 3 0 4 9 11 8 8 9 11 14 9 3 7 9 9 10 9 13 17 13 19 17 16 13 16 11 12 9 10 9 12 11 9 9 9 8 6 3 7 5 8 4 2 1 4 2
-4 5 2 3 10 10 8 8 10 12 12 9 8 7 7 8 13 12 9 11 12 10 10 10 13 9 7 9 9 7 7 4 4 9 5 2 4 4 6 5 5 5 6 6 7 6 7
Height
5735 5729 5724 5718 5711 5705 5699 5692 5687 5683 5679 5676 5673 5672 5671 5669 5668 5667 5668 5671 5672 5673 5673 5676 5675 5672 5670 5668 5665 5664 5660 5657 5654 5651 5648 5644 5641 5637 5636 5635 5634 5635 5634 5637 5637 5636 5638
5722 5714 5707 5702 5697 5691 5684 5678 5672 5666 5661 5657 5654 5653 5653 5653 5651 5653 5653 5656 5658 5659 5661 5664 5664 5661 5660 5658 5655 5653 5650 5646 5642 5639 5635 5630 5626 5621 5620 5617 5617 5616 5616 5619 5620 5621 5622
5710 5702 5695 5687 5680 5672 5664 5658 5653 5648 5640 5637 5635 5634 5635 5635 5635 5637 5639 5643 5644 5647 5649 5653 5652 5651 5650 5648 5645 5643 5640 5636 5631 5627 5622 5615 5610 5604 5603 5601 5600 5599 5600 5599 5605 5605 5610
5695 5686 5677 5668 5659 5651 5643 5636 5631 5626 5623 5616 5613 5615 5617 5617 5619 5621 5625 5628 5632 5635 5638 5640 5642 5642 5641 5639 5636 5634 5630 5625 5619 5614 5606 5601 5596 5592 5589 5589 5588 5588 5588 5589 5594 5595 5605
5678 5669 5658 5648 5637 5628 5619 5613 5607 5603 5600 5596 5594 5596 5598 5601 5604 5606 5609 5614 5620 5623 5628 5630 5632 5632 5633 5631 5628 5625 5620 5614 5607 5601 5593 5587 5582 5581 5582 5582 5584 5585 5586 5587 5587 5589 5594
5664 5654 5642 5631 5619 5608 5599 5591 5585 5581 5578 5576 5574 5574 5577 5583 5587 5591 5596 5601 5607 5614 5619 5621 5623 5626 5625 5623 5620 5615 5611 5603 5594 5586 5579 5575 5572 5574 5577 5581 5584 5585 5586 5587 5588 5589 5591
5646 5633 5622 5608 5596 5587 5577 5568 5560 5555 5552 5551 5549 5551 5555 5560 5568 5574 5582 5588 5599 5606 5610 5614 5615 5617 5617 5615 5612 5607 5601 5592 5583 5574 5570 5569 5570 5573 5577 5582 5585 5586 5586 5584 5583 5584 5587
5628 5614 5602 5590 5577 5566 5555 5545 5539 5533 5530 5529 5529 5534 5538 5544 5549 5558 5568 5577 5587 5597 5601 5606 5609 5610 5610 5607 5605 5601 5593 5584 5575 5570 5568 5571 5573 5577 5581 5584 5586 5586 5584 5584 5580 5577 5584
5610 5596 5582 5570 5557 5545 5535 5527 5521 5517 5513 5512 5514 5517 5522 5527 5535 5546 5556 5567 5577 5583 5593 5599 5602 5604 5604 5603 5600 5596 5589 5584 5578 5575 5575 5577 5580 5582 5584 5585 5586 5587 5587 5585 5585 5586 5592
5594 5580 5565 5550 5538 5528 5520 5515 5509 5505 5502 5501 5503 5505 5508 5514 5523 5534 5549 5558 5567 5576 5585 5594 5597 5599 5599 5598 5597 5594 5589 5588 5584 5583 5582 5584 5584 5585 5585 5586 5587 5589 5590 5589 5591 5593 5597
5579 5563 5547 5534 5524 5517 5510 5504 5500 5496 5494 5493 5495 5497 5500 5508 5516 5527 5540 5551 5561 5569 5580 5588 5593 5594 5594 5597 5596 5594 5592 5590 5589 5587 5589 5589 5587 5587 5587 5588 5590 5592 5593 5592 5596 5600 5604
5564 5548 5533 5523 5515 5509 5503 5498 5493 5490 5489 5488 5488 5491 5495 5504 5513 5522 5531 5544 5554 5568 5577 5585 5588 5590 5594 5593 5593 5592 5593 5591 5591 5592 5591 5592 5591 5591 5590 5591 5593 5595 5597 5599 5600 5603 5607
5551 5535 5523 5515 5508 5503 5498 5493 5488 5485 5484 5482 5483 5486 5490 5500 5510 5519 5529 5540 5555 5565 5576 5582 5585 5588 5590 5592 5592 5592 5593 5593 5594 5595 5595 5594 5594 5594 5594 5596 5598 5600 5602 5604 5606 5608 5609
5541 5527 5516 5508 5504 5501 5496 5491 5487 5481 5475 5471 5473 5480 5489 5499 5508 5520 5531 5543 5555 5565 5573 5579 5584 5587 5589 5591 5591 5593 5594 5595 5596 5597 5598 5598 5598 5598 5597 5601 5603 5604 5606 5606 5611 5612 5613
5534 5521 5511 5507 5507 5505 5498 5492 5485 5478 5471 5464 5470 5480 5490 5499 5508 5524 5535 5545 5555 5565 5572 5578 5582 5586 5588 5589 5592 5594 5595 5597 5599 5601 5601 5601 5601 5602 5603 5604 5607 5607 5609 5611 5614 5617 5618
5528 5516 5514 5515 5514 5511 5505 5497 5488 5481 5474 5469 5476 5483 5491 5502 5516 5529 5538 5549 5558 5566 5572 5578 5583 5585 5588 5590 5594 5595 5597 5600 5602 5603 5603 5604 5606 5608 5609 5610 5612 5613 5613 5617 5619 5621 5623
5525 5522 5523 5523 5521 5517 5513 5507 5501 5495 5486 5483 5488 5495 5502 5514 5525 5535 5544 5552 5560 5568 5575 5579 5583 5587 5590 5592 5595 5598 5602 5605 5605 5607 5607 5609 5610 5614 5614 5615 5615 5617 5618 5622 5625 5627 5628
5534 5533 5534 5533 5530 5527 5522 5519 5517 5515 5514 5509 5511 5515 5518 5528 5536 5542 5549 5558 5566 5573 5577 5581 5586 5589 5592 5594 5600 5604 5606 5608 5609 5611 5612 5613 5615 5617 5619 5620 5620 5621 5624 5626 5628 5632 5634
5549 5547 5546 5544 5542 5539 5536 5534 5531 5529 5527 5530 5530 5531 5531 5537 5543 5549 5558 5566 5571 5577 5581 5586 5590 5594 5597 5601 5606 5609 5612 5613 5615 5617 5618 5619 5621 5622 5624 5627 5626 5628 5629 5631 5633 5634 5637
5566 5564 5561 5558 5556 5553 5552 5549 5548 5546 5544 5544 5543 5544 5543 5546 5551 5558 5565 5570 5577 5582 5586 5590 5595 5600 5604 5608 5611 5614 5616 5617 5620 5622 5623 5624 5624 5627 5628 5628 5630 5631 5633 5634 5636 5638 5640
5586 5581 5579 5574 5570 5567 5565 5563 5560 5557 5553 5551 5550 5551 5551 5553 5560 5566 5572 5578 5584 5588 5593 5598 5602 5607 5610 5614 5618 5621 5622 5624 5627 5628 5628 5628 5629 5630 5630 5631 5632 5634 5635 5635 5637 5639 5641
5602 5598 5593 5589 5585 5581 5578 5574 5569 5565 5562 5560 5559 5560 5559 5562 5569 5575 5582 5586 5590 5595 5600 5604 5608 5612 5617 5620 5624 5627 5629 5631 5632 5632 5632 5633 5634 5634 5635 5635 5636 5636 5637 5638 5639 5641 5642
5615 5613 5608 5603 5599 5594 5589 5584 5580 5577 5573 5570 5569 5570 5572 5574 5578 5584 5589 5596 5600 5603 5608 5613 5616 5619 5623 5627 5629 5632 5634 5635 5635 5635 5636 5636 5638 5638 5639 5640 5640 5642 5641 5642 5643 5644 5645
5628 5625 5620 5615 5609 5605 5601 5596 5592 5588 5583 5580 5579 5581 5583 5587 5590 5594 5599 5604 5608 5611 5616 5620 5623 5626 5630 5632 5634 5636 5637 5638 5639 5639 5640 5639 5639 5639 5640 5641 5643 5643 5643 5643 5643 5643 5644
5638 5636 5631 5626 5622 5615 5611 5607 5604 5601 5595 5592 5592 5593 5594 5597 5600 5604 5608 5612 5617 5620 5623 5626 5628 5631 5633 5635 5637 5638 5639 5641 5641 5641 5642 5642 5642 5642 5642 5642 5643 5643 5644 5643 5643 5643 5642
5646 5645 5641 5637 5632 5628 5624 5619 5615 5612 5610 5608 5607 5606 5608 5608 5611 5614 5618 5620 5622 5625 5628 5631 5633 5635 5637 5638 5640 5641 5641 5642 5643 5643 5643 5644 5644 5645 5644 5644 5644 5644 5644 5644 5643 5642 5642
5653 5652 5649 5646 5642 5639 5635 5631 5629 5627 5624 5623 5622 5620 5620 5620 5622 5623 5626 5629 5629 5631 5633 5635 5636 5638 5640 5641 5641 5642 5643 5643 5643 5643 5644 5644 5644 5644 5644 5643 5643 5645 5644 5643 5644 5646 5642
5660 5659 5656 5654 5651 5648 5645 5642 5640 5639 5638 5638 5637 5636 5635 5634 5634 5635 5635 5636 5637 5638 5639 5641 5642 5643 5644 5644 5645 5646 5646 5646 5646 5646 5646 5646 5645 5645 5646 5646 5646 5645 5644 5644 5643 5640 5639
5661 5664 5662 5661 5659 5656 5654 5652 5651 5650 5650 5649 5648 5648 5647 5647 5646 5646 5646 5646 5646 5646 5646 5647 5647 5647 5648 5649 5649 5649 5649 5649 5649 5649 5649 5649 5649 5648 5648 5647 5645 5644 5642 5641 5639 5637 5635